Location: Ku?niki
(51.4449°N, 17.8974°E)
Time: 19:01:21
(UTC+00:00)

Sich 1 Rocket - Pass Details

Date: 18 September 2020
Orbit: 617 x 652 km, 82.5° (Epoch: 21 October)

Event Time Altitude Azimuth Distance (km) Brightness Sun altitude
Rises 17:43:46 0° 173° (S) 2,919 6.8 -8.3°
Reaches altitude 10° 17:46:02 10° 167° (SSE) 2,021 5.9 -8.7°
Maximum altitude 17:50:21 48° 94° (E) 842 3.8 -9.3°
Drops below altitude 10° 17:54:44 10° 20° (NNE) 2,058 6.2 -10.0°
Sets 17:57:04 0° 15° (NNE) 2,977 7.1 -10.3°
